Time,TemperatureF,DewpointF,PressureIn,WindDirection,WindDirectionDegrees,WindSpeedMPH,WindSpeedGustMPH,Humidity,HourlyPrecipIn,Conditions,Clouds,dailyrainin,SoftwareType,DateUTC
2013-10-01 00:01:00,62.6,55.6,29.68,SSE,158,0.0,0.0,78,0.00,,,0.00,WUHU216HW,2013-10-01 04:01:00,
2013-10-01 00:06:00,62.5,55.8,29.67,SSE,158,0.0,0.0,79,0.00,,,0.00,WUHU216HW,2013-10-01 04:06:00,
2013-10-01 00:11:00,62.3,55.6,29.67,SSE,158,0.0,0.0,79,0.00,,,0.00,WUHU216HW,2013-10-01 04:11:00,
2013-10-01 00:16:00,62.3,55.6,29.67,SSE,158,0.0,0.0,79,0.00,,,0.00,WUHU216HW,2013-10-01 04:16:00,
2013-10-01 00:21:00,62.1,55.5,29.67,SSE,158,0.0,0.0,79,0.00,,,0.00,WUHU216HW,2013-10-01 04:21:00,
2013-10-01 00:26:00,61.9,55.4,29.68,SSE,158,0.0,0.0,79,0.00,,,0.00,WUHU216HW,2013-10-01 04:26:00,
2013-10-01 00:31:00,61.7,55.2,29.67,SSE,158,0.0,0.0,79,0.00,,,0.00,WUHU216HW,2013-10-01 04:31:00,
2013-10-01 00:36:00,61.6,55.0,29.68,SSE,158,0.0,0.0,79,0.00,,,0.00,WUHU216HW,2013-10-01 04:36:00,
2013-10-01 00:41:00,61.6,55.4,29.68,SSE,158,0.0,0.0,80,0.00,,,0.00,WUHU216HW,2013-10-01 04:41:00,
2013-10-01 00:46:00,61.4,55.2,29.68,SSE,158,0.0,0.0,80,0.00,,,0.00,WUHU216HW,2013-10-01 04:46:00,
2013-10-01 00:51:00,61.2,55.1,29.68,SSE,158,0.0,0.0,80,0.00,,,0.00,WUHU216HW,2013-10-01 04:51:00,
2013-10-01 00:56:00,61.2,55.1,29.68,SSE,158,0.0,0.0,80,0.00,,,0.00,WUHU216HW,2013-10-01 04:56:00,
2013-10-01 01:01:00,61.0,54.9,29.68,SSE,158,0.0,0.0,80,0.00,,,0.00,WUHU216HW,2013-10-01 05:01:00,
2013-10-01 01:06:00,60.8,54.7,29.68,SSE,158,0.0,0.0,80,0.00,,,0.00,WUHU216HW,2013-10-01 05:06:00,
2013-10-01 01:11:00,60.8,54.7,29.68,SSE,158,0.0,0.0,80,0.00,,,0.00,WUHU216HW,2013-10-01 05:11:00,
2013-10-01 01:16:00,60.8,54.7,29.68,SSE,158,0.0,0.0,80,0.00,,,0.00,WUHU216HW,2013-10-01 05:16:00,
2013-10-01 01:21:00,60.5,54.4,29.68,SSE,158,0.0,0.0,80,0.00,,,0.00,WUHU216HW,2013-10-01 05:21:00,
2013-10-01 01:26:00,60.5,54.7,29.68,SSE,158,0.0,0.0,81,0.00,,,0.00,WUHU216HW,2013-10-01 05:26:00,
2013-10-01 01:31:00,60.3,54.6,29.68,SSE,158,0.0,0.0,81,0.00,,,0.00,WUHU216HW,2013-10-01 05:31:00,
2013-10-01 01:36:00,60.3,54.6,29.68,SSE,158,0.0,0.0,81,0.00,,,0.00,WUHU216HW,2013-10-01 05:36:00,
2013-10-01 01:41:00,60.1,54.4,29.68,SSE,158,0.0,0.0,81,0.00,,,0.00,WUHU216HW,2013-10-01 05:41:00,
2013-10-01 01:46:00,60.1,54.4,29.68,SSE,158,0.0,0.0,81,0.00,,,0.00,WUHU216HW,2013-10-01 05:46:00,
2013-10-01 01:51:00,60.1,54.4,29.68,SSE,158,0.0,0.0,81,0.00,,,0.00,WUHU216HW,2013-10-01 05:51:00,
2013-10-01 01:56:00,60.1,54.4,29.68,SSE,158,0.0,0.0,81,0.00,,,0.00,WUHU216HW,2013-10-01 05:56:00,
2013-10-01 02:01:00,59.9,54.2,29.68,SSE,158,0.0,0.0,81,0.00,,,0.00,WUHU216HW,2013-10-01 06:01:00,
2013-10-01 02:06:00,59.9,54.2,29.68,SSE,158,0.0,0.0,81,0.00,,,0.00,WUHU216HW,2013-10-01 06:06:00,
2013-10-01 02:11:00,59.9,54.2,29.68,SSE,158,0.0,0.0,81,0.00,,,0.00,WUHU216HW,2013-10-01 06:11:00,
2013-10-01 02:16:00,59.8,54.3,29.67,SSE,158,0.0,0.0,82,0.00,,,0.00,WUHU216HW,2013-10-01 06:16:00,
2013-10-01 02:21:00,59.8,54.0,29.68,SSE,158,0.0,0.0,81,0.00,,,0.00,WUHU216HW,2013-10-01 06:21:00,
2013-10-01 02:26:00,59.6,54.1,29.68,SSE,158,0.0,0.0,82,0.00,,,0.00,WUHU216HW,2013-10-01 06:26:00,
2013-10-01 02:31:00,59.6,54.1,29.68,SSE,158,0.0,0.0,82,0.00,,,0.00,WUHU216HW,2013-10-01 06:31:00,
2013-10-01 02:36:00,59.4,53.9,29.68,SSE,158,0.0,0.0,82,0.00,,,0.00,WUHU216HW,2013-10-01 06:36:00,
2013-10-01 02:41:00,59.4,53.9,29.68,SSE,158,0.0,0.0,82,0.00,,,0.00,WUHU216HW,2013-10-01 06:41:00,
2013-10-01 02:46:00,59.2,53.7,29.68,SSE,158,0.0,0.0,82,0.00,,,0.00,WUHU216HW,2013-10-01 06:46:00,
2013-10-01 02:51:00,59.2,53.7,29.68,SSE,158,0.0,0.0,82,0.00,,,0.00,WUHU216HW,2013-10-01 06:51:00,
2013-10-01 02:56:00,59.0,53.6,29.68,SSE,158,0.0,0.0,82,0.00,,,0.00,WUHU216HW,2013-10-01 06:56:00,
2013-10-01 03:01:00,59.0,53.6,29.68,SSE,158,0.0,0.0,82,0.00,,,0.00,WUHU216HW,2013-10-01 07:01:00,
2013-10-01 03:06:00,58.9,53.4,29.68,SSE,158,0.0,0.0,82,0.00,,,0.00,WUHU216HW,2013-10-01 07:06:00,
2013-10-01 03:11:00,58.9,53.7,29.68,SSE,158,0.0,0.0,83,0.00,,,0.00,WUHU216HW,2013-10-01 07:11:00,
2013-10-01 03:16:00,58.9,53.7,29.68,SSE,158,0.0,0.0,83,0.00,,,0.00,WUHU216HW,2013-10-01 07:16:00,
2013-10-01 03:21:00,58.7,53.6,29.68,SSE,158,0.0,0.0,83,0.00,,,0.00,WUHU216HW,2013-10-01 07:21:00,
2013-10-01 03:26:00,58.7,53.6,29.68,SSE,158,0.0,0.0,83,0.00,,,0.00,WUHU216HW,2013-10-01 07:26:00,
2013-10-01 03:31:00,58.5,53.4,29.68,SSE,158,0.0,0.0,83,0.00,,,0.00,WUHU216HW,2013-10-01 07:31:00,
2013-10-01 03:36:00,58.5,53.4,29.68,SSE,158,0.0,0.0,83,0.00,,,0.00,WUHU216HW,2013-10-01 07:36:00,
2013-10-01 03:41:00,58.5,53.4,29.68,SSE,158,0.0,0.0,83,0.00,,,0.00,WUHU216HW,2013-10-01 07:41:00,
2013-10-01 03:46:00,58.3,53.2,29.68,SSE,158,0.0,0.0,83,0.00,,,0.00,WUHU216HW,2013-10-01 07:46:00,
2013-10-01 03:51:00,58.3,53.2,29.68,SSE,158,0.0,0.0,83,0.00,,,0.00,WUHU216HW,2013-10-01 07:51:00,
2013-10-01 03:56:00,58.1,53.0,29.68,SSE,158,0.0,0.0,83,0.00,,,0.00,WUHU216HW,2013-10-01 07:56:00,
2013-10-01 04:01:00,58.1,53.0,29.68,SSE,158,0.0,0.0,83,0.00,,,0.00,WUHU216HW,2013-10-01 08:01:00,
2013-10-01 04:06:00,58.1,53.0,29.68,SSE,158,0.0,0.0,83,0.00,,,0.00,WUHU216HW,2013-10-01 08:06:00,
2013-10-01 04:11:00,58.0,52.8,29.68,SSE,158,0.0,0.0,83,0.00,,,0.00,WUHU216HW,2013-10-01 08:11:00,
2013-10-01 04:16:00,58.0,52.8,29.68,SSE,158,0.0,0.0,83,0.00,,,0.00,WUHU216HW,2013-10-01 08:16:00,
2013-10-01 04:22:00,57.8,52.7,29.68,SSE,158,0.0,0.0,83,0.00,,,0.00,WUHU216HW,2013-10-01 08:22:00,
2013-10-01 04:27:00,57.8,52.7,29.68,SSE,158,0.0,0.0,83,0.00,,,0.00,WUHU216HW,2013-10-01 08:27:00,
2013-10-01 04:32:00,57.6,52.5,29.68,SSE,158,0.0,0.0,83,0.00,,,0.00,WUHU216HW,2013-10-01 08:32:00,
2013-10-01 04:37:00,57.6,52.5,29.68,SSE,158,0.0,0.0,83,0.00,,,0.00,WUHU216HW,2013-10-01 08:37:00,
2013-10-01 04:42:00,57.6,52.5,29.68,SSE,158,0.0,0.0,83,0.00,,,0.00,WUHU216HW,2013-10-01 08:42:00,
2013-10-01 04:47:00,57.4,52.3,29.68,SSE,158,0.0,0.0,83,0.00,,,0.00,WUHU216HW,2013-10-01 08:47:00,
2013-10-01 04:52:00,57.4,52.3,29.68,SSW,203,0.0,0.0,83,0.00,,,0.00,WUHU216HW,2013-10-01 08:52:00,
2013-10-01 04:57:00,57.2,52.1,29.68,SSW,203,0.0,0.0,83,0.00,,,0.00,WUHU216HW,2013-10-01 08:57:00,
2013-10-01 05:02:00,57.2,52.1,29.68,SSW,203,0.0,0.0,83,0.00,,,0.00,WUHU216HW,2013-10-01 09:02:00,
2013-10-01 05:07:00,57.2,52.4,29.68,SSW,203,0.0,0.0,84,0.00,,,0.00,WUHU216HW,2013-10-01 09:07:00,
2013-10-01 05:12:00,57.1,52.2,29.68,South,180,0.0,0.0,84,0.00,,,0.00,WUHU216HW,2013-10-01 09:12:00,
2013-10-01 05:17:00,56.9,52.0,29.69,SSE,158,0.0,0.0,84,0.00,,,0.00,WUHU216HW,2013-10-01 09:17:00,
2013-10-01 05:22:00,56.9,52.0,29.69,SSE,158,0.0,0.0,84,0.00,,,0.00,WUHU216HW,2013-10-01 09:22:00,
2013-10-01 05:27:00,56.7,51.8,29.69,SSE,158,0.0,0.0,84,0.00,,,0.00,WUHU216HW,2013-10-01 09:27:00,
2013-10-01 05:32:00,56.7,51.8,29.69,SSE,158,0.0,0.0,84,0.00,,,0.00,WUHU216HW,2013-10-01 09:32:00,
2013-10-01 05:37:00,56.7,51.8,29.69,SSE,158,0.0,0.0,84,0.00,,,0.00,WUHU216HW,2013-10-01 09:37:00,
2013-10-01 05:42:00,56.7,51.8,29.70,SSE,158,0.0,0.0,84,0.00,,,0.00,WUHU216HW,2013-10-01 09:42:00,
2013-10-01 05:47:00,56.5,51.7,29.70,SSE,158,0.0,0.0,84,0.00,,,0.00,WUHU216HW,2013-10-01 09:47:00,
2013-10-01 05:52:00,56.5,51.7,29.69,SSE,158,0.0,0.0,84,0.00,,,0.00,WUHU216HW,2013-10-01 09:52:00,
2013-10-01 05:57:00,56.5,51.7,29.70,SSE,158,0.0,0.0,84,0.00,,,0.00,WUHU216HW,2013-10-01 09:57:00,
2013-10-01 06:02:00,56.5,51.4,29.70,SSE,158,0.0,0.0,83,0.00,,,0.00,WUHU216HW,2013-10-01 10:02:00,
2013-10-01 06:07:00,56.5,51.4,29.70,SSE,158,0.0,0.0,83,0.00,,,0.00,WUHU216HW,2013-10-01 10:07:00,
2013-10-01 06:12:00,56.3,51.2,29.70,SSE,158,0.0,0.0,83,0.00,,,0.00,WUHU216HW,2013-10-01 10:12:00,
2013-10-01 06:17:00,56.3,51.2,29.70,SSE,158,0.0,0.0,83,0.00,,,0.00,WUHU216HW,2013-10-01 10:17:00,
2013-10-01 06:22:00,56.2,51.0,29.70,SSE,158,0.0,0.0,83,0.00,,,0.00,WUHU216HW,2013-10-01 10:22:00,
2013-10-01 06:27:00,56.2,51.0,29.70,SSE,158,0.0,0.0,83,0.00,,,0.00,WUHU216HW,2013-10-01 10:27:00,
2013-10-01 06:33:00,56.2,51.3,29.71,SSE,158,0.0,0.0,84,0.00,,,0.00,WUHU216HW,2013-10-01 10:33:00,
2013-10-01 06:38:00,56.2,51.3,29.71,SSE,158,0.0,0.0,84,0.00,,,0.00,WUHU216HW,2013-10-01 10:38:00,
2013-10-01 06:43:00,56.0,51.1,29.72,SSE,158,0.0,0.0,84,0.00,,,0.00,WUHU216HW,2013-10-01 10:43:00,
2013-10-01 06:48:00,56.0,51.1,29.72,SSE,158,0.0,0.0,84,0.00,,,0.00,WUHU216HW,2013-10-01 10:48:00,
2013-10-01 06:53:00,55.8,50.9,29.72,SSE,158,0.0,0.0,84,0.00,,,0.00,WUHU216HW,2013-10-01 10:53:00,
2013-10-01 06:58:00,55.8,50.9,29.72,SSE,158,0.0,0.0,84,0.00,,,0.00,WUHU216HW,2013-10-01 10:58:00,
2013-10-01 07:03:00,55.8,50.9,29.72,SSE,158,0.0,0.0,84,0.00,,,0.00,WUHU216HW,2013-10-01 11:03:00,
2013-10-01 07:08:00,55.8,50.9,29.72,SSE,158,0.0,0.0,84,0.00,,,0.00,WUHU216HW,2013-10-01 11:08:00,
2013-10-01 07:13:00,55.8,50.9,29.72,SSE,158,0.0,0.0,84,0.00,,,0.00,WUHU216HW,2013-10-01 11:13:00,
2013-10-01 07:18:00,55.6,50.8,29.72,SSE,158,0.0,0.0,84,0.00,,,0.00,WUHU216HW,2013-10-01 11:18:00,
2013-10-01 07:23:00,55.6,50.8,29.73,SSE,158,0.0,0.0,84,0.00,,,0.00,WUHU216HW,2013-10-01 11:23:00,
2013-10-01 07:28:00,55.6,50.8,29.73,SSE,158,0.0,0.0,84,0.00,,,0.00,WUHU216HW,2013-10-01 11:28:00,
2013-10-01 07:33:00,55.6,50.8,29.73,SSE,158,0.0,0.0,84,0.00,,,0.00,WUHU216HW,2013-10-01 11:33:00,
2013-10-01 07:38:00,55.6,50.8,29.73,SSE,158,0.0,0.0,84,0.00,,,0.00,WUHU216HW,2013-10-01 11:38:00,
2013-10-01 07:43:00,55.6,50.8,29.73,SSE,158,0.0,0.0,84,0.00,,,0.00,WUHU216HW,2013-10-01 11:43:00,
2013-10-01 07:48:00,55.6,50.8,29.73,SSE,158,0.0,0.0,84,0.00,,,0.00,WUHU216HW,2013-10-01 11:48:00,
2013-10-01 07:53:00,55.6,50.8,29.73,SSE,158,0.0,0.0,84,0.00,,,0.00,WUHU216HW,2013-10-01 11:53:00,
2013-10-01 07:58:00,55.6,50.8,29.73,SSE,158,0.0,0.0,84,0.00,,,0.00,WUHU216HW,2013-10-01 11:58:00,
2013-10-01 08:03:00,55.8,50.9,29.73,SSE,158,0.0,0.0,84,0.00,,,0.00,WUHU216HW,2013-10-01 12:03:00,
2013-10-01 08:08:00,55.8,50.9,29.73,SSE,158,0.0,0.0,84,0.00,,,0.00,WUHU216HW,2013-10-01 12:08:00,
2013-10-01 08:13:00,55.8,50.9,29.73,SSE,158,0.0,0.0,84,0.00,,,0.00,WUHU216HW,2013-10-01 12:13:00,
2013-10-01 08:18:00,56.0,51.1,29.73,SSE,158,0.0,0.0,84,0.00,,,0.00,WUHU216HW,2013-10-01 12:18:00,
2013-10-01 08:23:00,56.0,51.1,29.74,SSE,158,0.0,0.0,84,0.00,,,0.00,WUHU216HW,2013-10-01 12:23:00,
2013-10-01 08:28:00,56.2,51.3,29.74,SSE,158,0.0,0.0,84,0.00,,,0.00,WUHU216HW,2013-10-01 12:28:00,
2013-10-01 08:33:00,56.3,51.8,29.73,SSE,158,0.0,0.0,85,0.00,,,0.00,WUHU216HW,2013-10-01 12:33:00,
2013-10-01 08:38:00,56.5,51.7,29.74,SSE,158,0.0,0.0,84,0.00,,,0.00,WUHU216HW,2013-10-01 12:38:00,
2013-10-01 08:43:00,56.7,52.2,29.74,SSE,158,0.0,0.0,85,0.00,,,0.00,WUHU216HW,2013-10-01 12:43:00,
2013-10-01 08:48:00,56.9,52.4,29.74,SSE,158,0.0,0.0,85,0.00,,,0.00,WUHU216HW,2013-10-01 12:48:00,
2013-10-01 08:53:00,57.1,52.6,29.74,SSE,158,0.0,0.0,85,0.00,,,0.00,WUHU216HW,2013-10-01 12:53:00,
2013-10-01 08:58:00,57.4,52.9,29.74,SSE,158,0.0,0.0,85,0.00,,,0.00,WUHU216HW,2013-10-01 12:58:00,
2013-10-01 09:03:00,57.8,53.7,29.74,SE,135,0.0,0.0,86,0.00,,,0.00,WUHU216HW,2013-10-01 13:03:00,
2013-10-01 09:08:00,58.1,54.0,29.74,SE,135,0.0,0.0,86,0.00,,,0.00,WUHU216HW,2013-10-01 13:08:00,
2013-10-01 09:13:00,58.7,54.6,29.74,SE,135,0.0,0.0,86,0.00,,,0.00,WUHU216HW,2013-10-01 13:13:00,
2013-10-01 09:18:00,59.0,54.9,29.74,SE,135,0.9,0.9,86,0.00,,,0.00,WUHU216HW,2013-10-01 13:18:00,
2013-10-01 09:23:00,59.6,55.5,29.74,ESE,113,0.0,1.1,86,0.00,,,0.00,WUHU216HW,2013-10-01 13:23:00,
2013-10-01 09:28:00,60.1,56.0,29.74,SSW,203,0.4,1.6,86,0.00,,,0.00,WUHU216HW,2013-10-01 13:28:00,
2013-10-01 09:33:00,60.7,56.8,29.74,ESE,113,0.2,1.6,87,0.00,,,0.00,WUHU216HW,2013-10-01 13:33:00,
2013-10-01 09:38:00,61.0,57.2,29.74,SSE,158,0.4,0.9,87,0.00,,,0.00,WUHU216HW,2013-10-01 13:38:00,
2013-10-01 09:43:00,61.6,57.7,29.75,North,0,0.7,1.3,87,0.00,,,0.00,WUHU216HW,2013-10-01 13:43:00,
2013-10-01 09:48:00,62.1,58.2,29.75,SSE,158,0.2,1.3,87,0.00,,,0.00,WUHU216HW,2013-10-01 13:48:00,
2013-10-01 09:53:00,62.6,58.8,29.74,ENE,68,0.0,2.5,87,0.00,,,0.00,WUHU216HW,2013-10-01 13:53:00,
2013-10-01 09:58:00,63.2,59.3,29.75,ENE,68,0.0,2.5,87,0.00,,,0.00,WUHU216HW,2013-10-01 13:58:00,
2013-10-01 10:03:00,63.7,59.5,29.75,SSE,158,0.7,1.1,86,0.00,,,0.00,WUHU216HW,2013-10-01 14:03:00,
2013-10-01 10:08:00,64.1,59.9,29.74,SE,135,0.0,1.6,86,0.00,,,0.00,WUHU216HW,2013-10-01 14:08:00,
2013-10-01 10:13:00,64.6,60.4,29.74,West,270,0.0,1.6,86,0.00,,,0.00,WUHU216HW,2013-10-01 14:13:00,
2013-10-01 10:18:00,65.2,60.8,29.74,NW,315,0.0,0.9,86,0.00,,,0.00,WUHU216HW,2013-10-01 14:18:00,
2013-10-01 10:23:00,65.7,61.4,29.74,WNW,293,0.7,1.3,86,0.00,,,0.00,WUHU216HW,2013-10-01 14:23:00,
2013-10-01 10:28:00,66.2,61.9,29.74,SSE,158,1.8,2.9,86,0.00,,,0.00,WUHU216HW,2013-10-01 14:28:00,
2013-10-01 10:33:00,66.6,61.9,29.74,WNW,293,1.1,2.9,85,0.00,,,0.00,WUHU216HW,2013-10-01 14:33:00,
2013-10-01 10:38:00,67.1,62.5,29.74,SSE,158,0.4,3.6,85,0.00,,,0.00,WUHU216HW,2013-10-01 14:38:00,
2013-10-01 10:44:00,67.7,62.6,29.75,WNW,293,1.3,3.6,84,0.00,,,0.00,WUHU216HW,2013-10-01 14:44:00,
2013-10-01 10:49:00,68.2,63.2,29.74,SE,135,0.2,3.1,84,0.00,,,0.00,WUHU216HW,2013-10-01 14:49:00,
2013-10-01 10:54:00,68.8,63.1,29.74,NNW,338,0.4,1.8,82,0.00,,,0.00,WUHU216HW,2013-10-01 14:54:00,
2013-10-01 10:59:00,69.1,63.1,29.74,East,90,0.0,1.8,81,0.00,,,0.00,WUHU216HW,2013-10-01 14:59:00,
2013-10-01 11:04:00,69.7,63.2,29.74,NW,315,0.0,2.0,80,0.00,,,0.00,WUHU216HW,2013-10-01 15:04:00,
2013-10-01 11:09:00,70.0,63.5,29.74,West,270,1.1,3.4,80,0.00,,,0.00,WUHU216HW,2013-10-01 15:09:00,
2013-10-01 11:14:00,70.6,63.7,29.74,NNE,23,0.9,3.4,79,0.00,,,0.00,WUHU216HW,2013-10-01 15:14:00,
2013-10-01 11:19:00,70.9,64.1,29.74,SSW,203,0.4,2.5,79,0.00,,,0.00,WUHU216HW,2013-10-01 15:19:00,
2013-10-01 11:24:00,71.3,63.6,29.74,ESE,113,1.1,2.5,77,0.00,,,0.00,WUHU216HW,2013-10-01 15:24:00,
2013-10-01 11:29:00,71.5,63.8,29.73,WNW,293,0.4,1.6,77,0.00,,,0.00,WUHU216HW,2013-10-01 15:29:00,
2013-10-01 11:35:00,71.8,63.8,29.73,SSE,158,1.1,1.3,76,0.00,,,0.00,WUHU216HW,2013-10-01 15:35:00,
2013-10-01 11:40:00,72.5,64.9,29.73,SSE,158,2.5,3.4,77,0.00,,,0.00,WUHU216HW,2013-10-01 15:40:00,
2013-10-01 11:45:00,73.4,65.1,29.73,WNW,293,0.9,3.4,75,0.00,,,0.00,WUHU216HW,2013-10-01 15:45:00,
2013-10-01 11:50:00,73.6,63.7,29.73,West,270,2.9,3.1,71,0.00,,,0.00,WUHU216HW,2013-10-01 15:50:00,
2013-10-01 11:55:00,73.8,63.9,29.73,WNW,293,1.1,3.1,71,0.00,,,0.00,WUHU216HW,2013-10-01 15:55:00,
2013-10-01 12:00:00,73.8,63.6,29.73,WNW,293,0.4,2.9,70,0.00,,,0.00,WUHU216HW,2013-10-01 16:00:00,
2013-10-01 12:05:00,73.6,62.9,29.73,SE,135,1.8,3.1,69,0.00,,,0.00,WUHU216HW,2013-10-01 16:05:00,
2013-10-01 12:10:00,73.4,63.5,29.73,SW,225,0.4,4.0,71,0.00,,,0.00,WUHU216HW,2013-10-01 16:10:00,
2013-10-01 12:15:00,73.1,63.2,29.73,SSE,158,1.1,4.0,71,0.00,,,0.00,WUHU216HW,2013-10-01 16:15:00,
2013-10-01 12:20:00,73.4,63.5,29.73,WNW,293,0.7,1.8,71,0.00,,,0.00,WUHU216HW,2013-10-01 16:20:00,
2013-10-01 12:25:00,74.0,63.6,29.73,WNW,293,2.2,3.4,70,0.00,,,0.00,WUHU216HW,2013-10-01 16:25:00,
2013-10-01 12:30:00,74.5,63.7,29.72,SSE,158,1.1,3.4,69,0.00,,,0.00,WUHU216HW,2013-10-01 16:30:00,
2013-10-01 12:31:00,74.5,63.7,29.72,SE,135,2.2,3.4,69,0.00,,,0.00,WUHU216HW,2013-10-01 16:31:00,
2013-10-01 12:36:00,74.9,63.2,29.73,NNE,23,0.9,2.5,67,0.00,,,0.00,WUHU216HW,2013-10-01 16:36:00,
2013-10-01 12:41:00,75.4,63.3,29.72,WNW,293,0.9,3.1,66,0.00,,,0.00,WUHU216HW,2013-10-01 16:41:00,
2013-10-01 12:46:00,75.4,63.3,29.72,SW,225,0.2,3.1,66,0.00,,,0.00,WUHU216HW,2013-10-01 16:46:00,
2013-10-01 12:51:00,75.6,63.0,29.72,SE,135,2.5,3.6,65,0.00,,,0.00,WUHU216HW,2013-10-01 16:51:00,
2013-10-01 12:56:00,75.6,62.6,29.72,NNW,338,0.9,4.7,64,0.00,,,0.00,WUHU216HW,2013-10-01 16:56:00,
2013-10-01 13:01:00,75.2,62.6,29.72,West,270,1.6,4.7,65,0.00,,,0.00,WUHU216HW,2013-10-01 17:01:00,
2013-10-01 13:06:00,74.5,61.9,29.72,NW,315,0.4,2.5,65,0.00,,,0.00,WUHU216HW,2013-10-01 17:06:00,
2013-10-01 13:11:00,74.5,62.4,29.72,SSW,203,2.2,2.5,66,0.00,,,0.00,WUHU216HW,2013-10-01 17:11:00,
2013-10-01 13:16:00,75.1,62.9,29.72,WSW,248,0.4,3.4,66,0.00,,,0.00,WUHU216HW,2013-10-01 17:16:00,
2013-10-01 13:21:00,75.2,62.2,29.72,ESE,113,1.1,3.4,64,0.00,,,0.00,WUHU216HW,2013-10-01 17:21:00,
2013-10-01 13:26:00,75.6,63.0,29.72,ESE,113,6.0,6.0,65,0.00,,,0.00,WUHU216HW,2013-10-01 17:26:00,
2013-10-01 13:31:00,75.4,62.4,29.72,East,90,0.2,6.0,64,0.00,,,0.00,WUHU216HW,2013-10-01 17:31:00,
2013-10-01 13:36:00,75.4,62.8,29.71,WSW,248,2.2,6.0,65,0.00,,,0.00,WUHU216HW,2013-10-01 17:36:00,
2013-10-01 13:41:00,75.8,62.7,29.71,SE,135,2.2,4.9,64,0.00,,,0.00,WUHU216HW,2013-10-01 17:41:00,
2013-10-01 13:46:00,76.3,62.8,29.71,North,0,0.9,4.9,63,0.00,,,0.00,WUHU216HW,2013-10-01 17:46:00,
2013-10-01 13:51:00,76.5,62.5,29.70,West,270,1.8,4.9,62,0.00,,,0.00,WUHU216HW,2013-10-01 17:51:00,
2013-10-01 13:56:00,76.9,62.8,29.70,SSE,158,1.6,2.9,62,0.00,,,0.00,WUHU216HW,2013-10-01 17:56:00,
2013-10-01 14:01:00,76.9,62.8,29.70,North,0,0.7,2.9,62,0.00,,,0.00,WUHU216HW,2013-10-01 18:01:00,
2013-10-01 14:06:00,76.9,62.8,29.70,SSE,158,2.5,2.9,62,0.00,,,0.00,WUHU216HW,2013-10-01 18:06:00,
2013-10-01 14:11:00,77.0,63.0,29.70,South,180,0.4,3.4,62,0.00,,,0.00,WUHU216HW,2013-10-01 18:11:00,
2013-10-01 14:16:00,77.2,62.7,29.70,ESE,113,2.9,3.4,61,0.00,,,0.00,WUHU216HW,2013-10-01 18:16:00,
2013-10-01 14:21:00,77.4,61.9,29.70,NNW,338,1.1,2.9,59,0.00,,,0.00,WUHU216HW,2013-10-01 18:21:00,
2013-10-01 14:26:00,77.2,62.7,29.70,North,0,0.2,2.9,61,0.00,,,0.00,WUHU216HW,2013-10-01 18:26:00,
2013-10-01 14:31:00,76.9,61.9,29.70,West,270,1.3,2.5,60,0.00,,,0.00,WUHU216HW,2013-10-01 18:31:00,
2013-10-01 14:36:00,76.7,62.2,29.70,ENE,68,2.2,2.2,61,0.00,,,0.00,WUHU216HW,2013-10-01 18:36:00,
2013-10-01 14:41:00,77.4,62.9,29.70,South,180,2.2,5.8,61,0.00,,,0.00,WUHU216HW,2013-10-01 18:41:00,
2013-10-01 14:46:00,77.8,63.3,29.70,SE,135,2.5,5.8,61,0.00,,,0.00,WUHU216HW,2013-10-01 18:46:00,
2013-10-01 14:51:00,78.1,63.2,29.70,SE,135,1.1,2.5,60,0.00,,,0.00,WUHU216HW,2013-10-01 18:51:00,
2013-10-01 14:56:00,78.5,63.5,29.70,NE,45,0.7,2.5,60,0.00,,,0.00,WUHU216HW,2013-10-01 18:56:00,
2013-10-01 15:01:00,78.8,63.4,29.69,SW,225,3.1,3.1,59,0.00,,,0.00,WUHU216HW,2013-10-01 19:01:00,
2013-10-01 15:06:00,79.4,63.4,29.69,SSE,158,1.8,4.3,58,0.00,,,0.00,WUHU216HW,2013-10-01 19:06:00,
2013-10-01 15:11:00,79.6,63.6,29.69,West,270,1.6,4.3,58,0.00,,,0.00,WUHU216HW,2013-10-01 19:11:00,
2013-10-01 15:17:00,79.6,63.0,29.69,ESE,113,1.1,3.4,57,0.00,,,0.00,WUHU216HW,2013-10-01 19:17:00,
2013-10-01 15:22:00,79.4,62.8,29.69,West,270,0.7,3.6,57,0.00,,,0.00,WUHU216HW,2013-10-01 19:22:00,
2013-10-01 15:27:00,79.4,62.8,29.69,South,180,2.0,3.6,57,0.00,,,0.00,WUHU216HW,2013-10-01 19:27:00,
2013-10-01 15:32:00,79.4,62.8,29.69,East,90,0.4,2.0,57,0.00,,,0.00,WUHU216HW,2013-10-01 19:32:00,
2013-10-01 15:37:00,79.2,61.7,29.69,SW,225,0.9,2.7,55,0.00,,,0.00,WUHU216HW,2013-10-01 19:37:00,
2013-10-01 15:42:00,79.0,62.0,29.68,ESE,113,1.8,3.4,56,0.00,,,0.00,WUHU216HW,2013-10-01 19:42:00,
2013-10-01 15:47:00,79.0,62.0,29.68,South,180,2.9,3.8,56,0.00,,,0.00,WUHU216HW,2013-10-01 19:47:00,
2013-10-01 15:52:00,79.0,62.0,29.68,SSW,203,0.4,3.8,56,0.00,,,0.00,WUHU216HW,2013-10-01 19:52:00,
2013-10-01 15:57:00,79.0,62.0,29.68,SE,135,1.1,3.6,56,0.00,,,0.00,WUHU216HW,2013-10-01 19:57:00,
2013-10-01 16:02:00,78.8,61.8,29.68,SSE,158,1.8,2.2,56,0.00,,,0.00,WUHU216HW,2013-10-01 20:02:00,
2013-10-01 16:07:00,78.8,61.8,29.68,NW,315,0.9,2.2,56,0.00,,,0.00,WUHU216HW,2013-10-01 20:07:00,
2013-10-01 16:12:00,78.3,61.3,29.68,West,270,0.7,3.4,56,0.00,,,0.00,WUHU216HW,2013-10-01 20:12:00,
2013-10-01 16:17:00,77.9,61.5,29.68,NW,315,1.8,3.4,57,0.00,,,0.00,WUHU216HW,2013-10-01 20:17:00,
2013-10-01 16:22:00,77.8,61.3,29.68,SE,135,1.3,3.4,57,0.00,,,0.00,WUHU216HW,2013-10-01 20:22:00,
2013-10-01 16:27:00,77.2,61.3,29.68,NW,315,0.0,3.4,58,0.00,,,0.00,WUHU216HW,2013-10-01 20:27:00,
2013-10-01 16:32:00,77.0,61.1,29.68,West,270,1.8,2.9,58,0.00,,,0.00,WUHU216HW,2013-10-01 20:32:00,
2013-10-01 16:37:00,77.0,61.1,29.68,ENE,68,0.4,2.9,58,0.00,,,0.00,WUHU216HW,2013-10-01 20:37:00,
2013-10-01 17:14:00,76.5,61.1,29.91,WNW,293,0.4,0.4,59,0.00,,,0.00,WUHU216HW,2013-10-01 21:14:00,
2013-10-01 17:20:00,76.3,60.9,29.91,SW,225,0.4,0.9,59,0.00,,,0.00,WUHU216HW,2013-10-01 21:20:00,
2013-10-01 17:25:00,76.3,60.9,29.91,NNW,338,0.7,1.1,59,0.00,,,0.00,WUHU216HW,2013-10-01 21:25:00,
2013-10-01 17:30:00,76.3,60.9,29.91,ENE,68,0.9,1.6,59,0.00,,,0.00,WUHU216HW,2013-10-01 21:30:00,
2013-10-01 17:35:00,76.1,60.8,29.91,WNW,293,0.2,2.5,59,0.00,,,0.00,WUHU216HW,2013-10-01 21:35:00,
2013-10-01 17:40:00,76.1,60.8,29.91,WSW,248,0.9,2.5,59,0.00,,,0.00,WUHU216HW,2013-10-01 21:40:00,
2013-10-01 17:45:00,76.0,60.7,29.91,SSE,158,1.1,2.7,59,0.00,,,0.00,WUHU216HW,2013-10-01 21:45:00,
2013-10-01 17:50:00,75.8,60.9,29.91,NW,315,0.4,2.7,60,0.00,,,0.00,WUHU216HW,2013-10-01 21:50:00,
2013-10-01 17:55:00,75.4,60.7,29.91,WNW,293,0.4,1.6,60,0.00,,,0.00,WUHU216HW,2013-10-01 21:55:00,
2013-10-01 18:00:00,75.2,60.5,29.91,ENE,68,0.4,1.6,60,0.00,,,0.00,WUHU216HW,2013-10-01 22:00:00,
2013-10-01 18:05:00,75.1,60.3,29.91,SSE,158,0.9,1.6,60,0.00,,,0.00,WUHU216HW,2013-10-01 22:05:00,
2013-10-01 18:10:00,75.1,60.3,29.91,SSE,158,1.3,1.3,60,0.00,,,0.00,WUHU216HW,2013-10-01 22:10:00,
2013-10-01 18:15:00,75.2,60.5,29.91,SSE,158,0.7,2.5,60,0.00,,,0.00,WUHU216HW,2013-10-01 22:15:00,
2013-10-01 18:20:00,75.1,60.3,29.91,WNW,293,0.4,3.4,60,0.00,,,0.00,WUHU216HW,2013-10-01 22:20:00,
2013-10-01 18:25:00,74.9,60.1,29.91,SE,135,0.2,3.4,60,0.00,,,0.00,WUHU216HW,2013-10-01 22:25:00,
2013-10-01 18:30:00,74.7,59.9,29.91,NNW,338,0.2,2.0,60,0.00,,,0.00,WUHU216HW,2013-10-01 22:30:00,
2013-10-01 18:35:00,74.5,60.2,29.91,North,0,0.0,2.0,61,0.00,,,0.00,WUHU216HW,2013-10-01 22:35:00,
2013-10-01 18:40:00,74.3,60.0,29.91,NE,45,0.0,0.4,61,0.00,,,0.00,WUHU216HW,2013-10-01 22:40:00,
2013-10-01 18:46:00,74.2,59.9,29.91,ENE,68,0.0,0.4,61,0.00,,,0.00,WUHU216HW,2013-10-01 22:46:00,
2013-10-01 18:51:00,74.0,59.7,29.91,ENE,68,0.0,0.0,61,0.00,,,0.00,WUHU216HW,2013-10-01 22:51:00,
2013-10-01 18:56:00,73.8,60.0,29.91,ENE,68,0.0,0.0,62,0.00,,,0.00,WUHU216HW,2013-10-01 22:56:00,
2013-10-01 19:01:00,73.6,59.8,29.91,SW,225,0.0,0.7,62,0.00,,,0.00,WUHU216HW,2013-10-01 23:01:00,
2013-10-01 19:06:00,73.3,59.4,29.91,SW,225,0.0,0.7,62,0.00,,,0.00,WUHU216HW,2013-10-01 23:06:00,
2013-10-01 19:11:00,73.1,59.7,29.91,SW,225,0.0,0.7,63,0.00,,,0.00,WUHU216HW,2013-10-01 23:11:00,
2013-10-01 19:16:00,72.7,59.4,29.91,SW,225,0.0,0.7,63,0.00,,,0.00,WUHU216HW,2013-10-01 23:16:00,
2013-10-01 19:20:00,72.5,59.2,29.91,SW,225,0.0,0.0,63,0.00,,,0.00,WUHU216HW,2013-10-01 23:20:00,
2013-10-01 19:25:00,72.2,59.3,29.91,SW,225,0.0,0.0,64,0.00,,,0.00,WUHU216HW,2013-10-01 23:25:00,
2013-10-01 19:30:00,71.8,59.4,29.91,SW,225,0.0,0.0,65,0.00,,,0.00,WUHU216HW,2013-10-01 23:30:00,
2013-10-01 19:31:00,71.8,59.4,29.91,SW,225,0.0,0.0,65,0.00,,,0.00,WUHU216HW,2013-10-01 23:31:00,
2013-10-01 19:36:00,71.5,59.0,29.91,SW,225,0.0,0.0,65,0.00,,,0.00,WUHU216HW,2013-10-01 23:36:00,
2013-10-01 19:41:00,71.1,58.3,29.91,SW,225,0.0,0.0,64,0.00,,,0.00,WUHU216HW,2013-10-01 23:41:00,
2013-10-01 19:46:00,70.9,58.5,29.91,SW,225,0.0,0.0,65,0.00,,,0.00,WUHU216HW,2013-10-01 23:46:00,
2013-10-01 19:51:00,70.6,58.2,29.91,SW,225,0.0,0.0,65,0.00,,,0.00,WUHU216HW,2013-10-01 23:51:00,
2013-10-01 19:56:00,70.4,58.1,29.91,SW,225,0.0,0.0,65,0.00,,,0.00,WUHU216HW,2013-10-01 23:56:00,
2013-10-01 20:01:00,70.0,58.2,29.91,SW,225,0.0,0.0,66,0.00,,,0.00,WUHU216HW,2013-10-02 00:01:00,
2013-10-01 20:06:00,69.7,57.8,29.91,SW,225,0.0,0.0,66,0.00,,,0.00,WUHU216HW,2013-10-02 00:06:00,
2013-10-01 20:11:00,69.5,58.0,29.92,SW,225,0.0,0.0,67,0.00,,,0.00,WUHU216HW,2013-10-02 00:11:00,
2013-10-01 20:16:00,69.1,57.7,29.92,SW,225,0.0,0.0,67,0.00,,,0.00,WUHU216HW,2013-10-02 00:16:00,
2013-10-01 20:21:00,68.9,57.5,29.92,SW,225,0.0,0.0,67,0.00,,,0.00,WUHU216HW,2013-10-02 00:21:00,
2013-10-01 20:26:00,68.8,57.8,29.92,SW,225,0.0,0.0,68,0.00,,,0.00,WUHU216HW,2013-10-02 00:26:00,
2013-10-01 20:31:00,68.6,57.6,29.92,SW,225,0.0,0.0,68,0.00,,,0.00,WUHU216HW,2013-10-02 00:31:00,
2013-10-01 20:36:00,68.4,57.9,29.92,SW,225,0.0,0.0,69,0.00,,,0.00,WUHU216HW,2013-10-02 00:36:00,
2013-10-01 20:41:00,68.2,57.7,29.92,SW,225,0.0,0.0,69,0.00,,,0.00,WUHU216HW,2013-10-02 00:41:00,
2013-10-01 20:46:00,68.0,57.5,29.92,SW,225,0.0,0.0,69,0.00,,,0.00,WUHU216HW,2013-10-02 00:46:00,
2013-10-01 20:51:00,67.7,57.6,29.92,SW,225,0.0,0.0,70,0.00,,,0.00,WUHU216HW,2013-10-02 00:51:00,
2013-10-01 20:56:00,67.5,57.4,29.92,SW,225,0.0,0.0,70,0.00,,,0.00,WUHU216HW,2013-10-02 00:56:00,
2013-10-01 21:01:00,67.5,57.4,29.92,SW,225,0.0,0.0,70,0.00,,,0.00,WUHU216HW,2013-10-02 01:01:00,
2013-10-01 21:06:00,67.3,57.2,29.92,SW,225,0.0,0.0,70,0.00,,,0.00,WUHU216HW,2013-10-02 01:06:00,
2013-10-01 21:11:00,67.1,57.1,29.92,SW,225,0.0,0.0,70,0.00,,,0.00,WUHU216HW,2013-10-02 01:11:00,
2013-10-01 21:16:00,67.0,56.9,29.92,SW,225,0.0,0.0,70,0.00,,,0.00,WUHU216HW,2013-10-02 01:16:00,
2013-10-01 21:21:00,66.8,57.1,29.92,SW,225,0.0,0.0,71,0.00,,,0.00,WUHU216HW,2013-10-02 01:21:00,
2013-10-01 21:26:00,66.6,56.9,29.92,SW,225,0.0,0.0,71,0.00,,,0.00,WUHU216HW,2013-10-02 01:26:00,
2013-10-01 21:31:00,66.4,57.1,29.92,SW,225,0.0,0.0,72,0.00,,,0.00,WUHU216HW,2013-10-02 01:31:00,
2013-10-01 21:36:00,66.2,56.9,29.92,SW,225,0.0,0.0,72,0.00,,,0.00,WUHU216HW,2013-10-02 01:36:00,
2013-10-01 21:41:00,65.9,56.6,29.93,SW,225,0.0,0.0,72,0.00,,,0.00,WUHU216HW,2013-10-02 01:41:00,
2013-10-01 21:46:00,65.9,57.0,29.93,SW,225,0.0,0.0,73,0.00,,,0.00,WUHU216HW,2013-10-02 01:46:00,
2013-10-01 21:51:00,65.7,56.8,29.93,SW,225,0.0,0.0,73,0.00,,,0.00,WUHU216HW,2013-10-02 01:51:00,
2013-10-01 21:56:00,65.5,56.6,29.93,SW,225,0.0,0.0,73,0.00,,,0.00,WUHU216HW,2013-10-02 01:56:00,
2013-10-01 22:01:00,65.5,57.0,29.93,SW,225,0.0,0.0,74,0.00,,,0.00,WUHU216HW,2013-10-02 02:01:00,
2013-10-01 22:06:00,65.3,56.8,29.93,SW,225,0.0,0.0,74,0.00,,,0.00,WUHU216HW,2013-10-02 02:06:00,
2013-10-01 22:11:00,65.2,56.7,29.93,SW,225,0.0,0.0,74,0.00,,,0.00,WUHU216HW,2013-10-02 02:11:00,
2013-10-01 22:16:00,65.2,56.7,29.93,SW,225,0.0,0.0,74,0.00,,,0.00,WUHU216HW,2013-10-02 02:16:00,
2013-10-01 22:21:00,65.0,56.5,29.93,SW,225,0.0,0.0,74,0.00,,,0.00,WUHU216HW,2013-10-02 02:21:00,
2013-10-01 22:26:00,64.8,56.4,29.93,SW,225,0.0,0.0,74,0.00,,,0.00,WUHU216HW,2013-10-02 02:26:00,
2013-10-01 22:31:00,64.8,56.7,29.93,SW,225,0.0,0.0,75,0.00,,,0.00,WUHU216HW,2013-10-02 02:31:00,
2013-10-01 22:36:00,64.6,56.5,29.93,SW,225,0.0,0.0,75,0.00,,,0.00,WUHU216HW,2013-10-02 02:36:00,
2013-10-01 22:41:00,64.4,56.3,29.93,SW,225,0.0,0.0,75,0.00,,,0.00,WUHU216HW,2013-10-02 02:41:00,
2013-10-01 22:46:00,64.4,56.3,29.93,SW,225,0.0,0.0,75,0.00,,,0.00,WUHU216HW,2013-10-02 02:46:00,
2013-10-01 22:51:00,64.3,56.5,29.93,SW,225,0.0,0.0,76,0.00,,,0.00,WUHU216HW,2013-10-02 02:51:00,
2013-10-01 22:56:00,64.1,56.3,29.93,SW,225,0.0,0.0,76,0.00,,,0.00,WUHU216HW,2013-10-02 02:56:00,
2013-10-01 23:01:00,64.1,56.3,29.93,SW,225,0.0,0.0,76,0.00,,,0.00,WUHU216HW,2013-10-02 03:01:00,
2013-10-01 23:06:00,63.9,56.2,29.93,SW,225,0.0,0.0,76,0.00,,,0.00,WUHU216HW,2013-10-02 03:06:00,
2013-10-01 23:11:00,63.7,56.0,29.93,SW,225,0.0,0.0,76,0.00,,,0.00,WUHU216HW,2013-10-02 03:11:00,
2013-10-01 23:16:00,63.7,56.0,29.93,SW,225,0.0,0.0,76,0.00,,,0.00,WUHU216HW,2013-10-02 03:16:00,
2013-10-01 23:21:00,63.5,56.2,29.93,SW,225,0.0,0.0,77,0.00,,,0.00,WUHU216HW,2013-10-02 03:21:00,
2013-10-01 23:26:00,63.5,56.2,29.93,SW,225,0.0,0.0,77,0.00,,,0.00,WUHU216HW,2013-10-02 03:26:00,
2013-10-01 23:31:00,63.4,55.6,29.93,SW,225,0.0,0.0,76,0.00,,,0.00,WUHU216HW,2013-10-02 03:31:00,
2013-10-01 23:36:00,63.2,55.4,29.93,SW,225,0.0,0.0,76,0.00,,,0.00,WUHU216HW,2013-10-02 03:36:00,
2013-10-01 23:41:00,63.0,55.3,29.93,SW,225,0.0,0.0,76,0.00,,,0.00,WUHU216HW,2013-10-02 03:41:00,
2013-10-01 23:46:00,63.0,55.3,29.93,SW,225,0.0,0.0,76,0.00,,,0.00,WUHU216HW,2013-10-02 03:46:00,
2013-10-01 23:51:00,62.8,55.4,29.93,SW,225,0.0,0.0,77,0.00,,,0.00,WUHU216HW,2013-10-02 03:51:00,
2013-10-01 23:56:00,62.6,55.3,29.93,SW,225,0.0,0.0,77,0.00,,,0.00,WUHU216HW,2013-10-02 03:56:00,